Regional Weather Roundup
Issued by NWS

Home | Current Version | Previous Version | Graphics & Text | Print | Product List | Glossary On
Versions: 1 2 3 4 5 6 7 8 9 10 11 12 13 14 15 16 17 18 19 20 21 22 23 24 25 26 27 28 29 30 31 32 33 34 35 36 37 38 39 40 41 42 43 44 45 46 47 48 49 50
000
ASUS43 KIND 220859
RWRIN

WEATHER ROUNDUP FOR INDIANA
NATIONAL WEATHER SERVICE INDIANAPOLIS IN
400 AM EST WED NOV 22 2017

NOTE: "FAIR" INDICATES FEW OR NO CLOUDS BELOW 12,000 FEET WITH NO
SIGNIFICANT WEATHER AND/OR OBSTRUCTIONS TO VISIBILITY.

* - STATION DOES NOT REPORT WEATHER SUCH AS PRECIPITATION OR FOG.

+ - STATION NOT QUALITY CONTROLLED BY THE NATIONAL WEATHER SERVICE.
    USE DATA WITH CAUTION...ESPECIALLY DEWPOINT AND RELATIVE
    HUMIDITY OBSERVATIONS.

INZ001>003-010>013-019-020-221000-
NORTHWEST INDIANA

CITY           SKY/WX    TMP DP  RH WIND       PRES   REMARKS
KNOX *+        CLOUDY    32  25  74 W9        30.22R WCI  24
MICHIGAN CITY+ CLOUDY    32  23  69 NW10      30.23R WCI  24
MONTICELLO +   CLOUDY    26  18  71 NW10      30.24R WCI  17
RENSSELAER +   CLEAR     25  18  74 W7        30.26R WCI  17

$$

LMZ046-743>745-221000-
SOUTHERN LAKE MICHIGAN

STATION/POSITION TIME  TEMP    WIND        PRES    WAVE
                       AIR SEA DIR/SP/G            HT
                 (UTC) (F)     (DEG/KT/KT) (MB)    (FT)
BURNS HARBOR     0840   33     330/ 10/ 18 1024.4R
MICHIGAN CITY    0830   33     290/ 18/ 20   N/A

$$

INZ004-005-014>016-021>024-221000-
NORTH CENTRAL INDIANA

CITY           SKY/WX    TMP DP  RH WIND       PRES   REMARKS
GOSHEN         CLOUDY    33  23  66 NW10      30.18R WCI  25
PERU/GRISSOM   CLOUDY    30  23  75 NW12      30.20R WCI  20
SOUTH BEND     CLOUDY    32  22  66 N7        30.20R WCI  26
WARSAW +       CLOUDY    32  25  74 NW9       30.19R WCI  24

$$

INZ006>009-017-018-025>027-221000-
NORTHEAST INDIANA

CITY           SKY/WX    TMP DP  RH WIND       PRES   REMARKS
AUBURN +       CLOUDY    34  23  64 NW6       30.17R WCI  29
FORT WAYNE     CLOUDY    34  25  69 NW5       30.18R WCI  30
KENDALLVILLE + CLOUDY    32  24  73 N6        30.16R WCI  26

$$

INZ028-029-035-036-043>045-051>053-221000-
WEST CENTRAL INDIANA

CITY           SKY/WX    TMP DP  RH WIND       PRES   REMARKS
CRAWFORDSVL +  CLEAR     23  19  83 NW6       30.21R WCI  16
GREENCASTLE +  CLEAR     27  21  80 NW5       30.24S WCI  21
LAFAYETTE      CLEAR     24  18  77 NW8       30.25R WCI  15
TERRE HAUTE    CLEAR     27  21  78 NW6       30.26R WCI  20

$$

INZ030>032-037>040-046>048-054>057-064-065-221000-
CENTRAL INDIANA

CITY           SKY/WX    TMP DP  RH WIND       PRES   REMARKS
FRANKFORT +    PTCLDY    28  22  76 NW8       30.24R WCI  20
INDIANAPOLIS   PTCLDY    26  21  81 NW9       30.23R WCI  17
-EAGLE CREEK   CLEAR     28  21  75 NW8       30.22R WCI  20
KOKOMO +       CLOUDY    30  24  78 NW9       30.21R WCI  22
MT COMFORT *+  PTCLDY    27  25  93 NW7       30.21R WCI  19
SHELBYVILLE    CLEAR     27  21  78 NW6       30.21R WCI  20

$$

INZ033-034-041-042-049-050-058-059-221000-
EAST CENTRAL INDIANA

CITY           SKY/WX    TMP DP  RH WIND       PRES   REMARKS
MUNCIE         CLOUDY    32  25  75 NW8       30.19R WCI  25
RICHMOND +     PTCLDY    28  27  93 NW7       30.16S WCI  21

$$

INZ060-061-067>069-081>083-085>088-221000-
SOUTHWEST INDIANA

CITY           SKY/WX    TMP DP  RH WIND       PRES   REMARKS
EVANSVILLE     CLEAR     30  23  75 N6        30.27S WCI  24
HUNTINGBURG +  CLEAR     28  24  85 NW8       30.26R WCI  20

$$

INZ062-063-066-070>080-084-089>092-221000-
SOUTH CENTRAL AND SOUTHEAST INDIANA

CITY           SKY/WX    TMP DP  RH WIND       PRES   REMARKS
BLOOMINGTON    CLEAR     28  21  75 NW3       30.23R
MADISON *+     CLEAR     30  25  80 CALM      30.22S
SEYMOUR +      CLEAR     28  23  80 NW7       30.23R WCI  21

$$





USA.gov is the U.S. government's official web portal to all federal, state and local government web resources and services.